Temperature
12 12 12 12 12 12 12 12 12 12 12 12 12 12 12 12 12 12 12 12 12 11 11 11 11 11 10 10 10 10 9 9 9 9 8 8 8 8 8 8 8 7 7
12 12 12 12 12 12 12 12 12 12 12 12 11 11 11 11 11 11 11 11 11 11 11 11 10 10 10 10 9 9 9 9 9 8 8 8 8 7 8 7 7 7 7
11 11 11 11 11 11 11 11 11 11 11 11 11 11 11 11 11 11 11 11 11 11 11 11 10 10 10 10 9 9 9 9 8 8 8 8 8 7 7 7 7 7 7
11 11 11 11 11 11 11 11 11 11 11 11 11 11 11 11 11 11 11 11 11 11 11 11 10 10 10 10 9 9 9 9 8 8 8 8 7 7 7 7 7 6 6
11 10 10 10 10 10 10 10 10 10 10 10 10 11 11 11 11 11 11 11 10 10 10 10 10 10 10 10 9 9 9 8 8 8 7 7 7 7 7 6 6 6 6
10 10 10 10 10 10 10 10 10 9 10 10 10 10 10 10 11 11 10 10 10 10 10 10 10 10 10 10 9 9 9 8 8 8 7 7 7 7 6 6 6 6 6
10 10 9 9 9 9 9 9 9 9 9 9 9 9 10 10 10 10 10 10 10 10 10 10 10 10 9 9 9 9 9 8 8 8 7 7 6 6 6 6 6 6 5
9 9 9 9 9 9 9 9 9 9 9 9 9 9 9 9 10 10 10 10 10 10 10 10 10 9 9 9 9 9 9 9 8 8 7 7 6 6 6 6 5 5 5
8 8 9 9 8 9 9 9 9 9 9 9 9 9 10 10 9 9 10 10 10 9 9 9 9 9 9 9 9 9 9 9 8 8 7 7 6 6 6 6 5 5 5
8 8 8 8 8 8 8 8 8 8 9 8 8 9 10 10 9 9 9 9 9 9 9 9 9 9 9 9 9 9 9 8 8 8 7 7 6 6 6 5 5 5 5
8 8 8 8 8 8 8 8 8 8 8 8 9 9 9 9 9 9 9 9 9 9 9 9 9 9 9 9 9 9 8 8 8 8 7 7 6 6 6 5 5 5 5
8 7 7 7 8 7 8 8 8 8 8 8 8 9 9 9 9 9 9 9 9 9 9 9 9 9 9 8 8 8 8 8 8 7 7 7 6 6 6 5 5 5 4
7 7 7 7 7 8 8 7 8 8 8 8 8 8 8 9 9 9 9 9 9 9 9 9 9 9 9 8 8 8 8 8 8 7 7 7 6 6 6 5 5 5 4
7 7 7 7 7 7 7 7 7 8 8 8 8 8 8 8 9 9 9 9 8 8 8 8 9 8 8 8 8 8 8 8 8 7 7 6 6 6 5 5 5 4 4
7 7 7 7 7 7 7 7 7 7 8 8 8 8 8 8 8 9 9 9 9 8 8 8 8 8 8 8 8 8 8 8 7 7 7 6 6 6 5 5 4 4 4
6 7 7 7 7 7 7 7 7 7 7 8 8 8 8 8 8 8 8 8 8 8 8 8 8 8 8 8 8 8 7 7 7 7 7 6 6 5 5 5 4 4 3
6 6 6 6 6 6 7 7 7 7 7 7 8 8 8 8 8 8 8 8 8 8 8 8 8 8 7 7 7 7 7 7 7 7 6 6 6 5 5 4 4 3 3
6 6 6 6 6 6 6 6 7 7 7 7 7 7 8 7 7 8 8 8 8 8 8 7 7 7 7 7 7 7 7 7 6 6 6 6 5 5 5 4 4 3 3
5 5 5 5 6 6 6 6 6 6 7 7 7 7 7 7 7 7 7 7 8 8 7 7 7 7 7 7 7 6 6 6 6 6 6 5 5 5 4 4 3 3 2
5 5 5 5 5 5 5 6 6 6 6 6 7 7 7 7 7 7 7 7 7 7 7 7 7 7 6 6 6 6 6 6 6 6 5 5 5 4 4 3 3 2 2
4 5 5 5 5 5 5 5 5 6 6 6 6 6 6 7 7 7 7 7 7 7 7 6 6 6 6 6 6 6 6 6 5 5 5 5 4 4 3 3 2 2 2
4 4 4 4 4 5 5 5 5 5 5 5 6 6 6 6 6 6 7 7 7 7 6 6 6 6 6 6 6 6 5 5 5 5 5 4 4 3 3 3 2 2 1
4 4 4 4 4 5 5 5 5 5 5 5 5 6 6 6 6 6 6 6 6 6 6 7 6 6 6 6 6 6 5 5 5 5 4 4 4 3 3 2 2 1 1
3 3 4 4 4 4 4 4 4 4 5 5 5 5 5 6 6 6 6 6 6 6 6 6 6 6 6 6 6 6 5 5 4 4 4 3 3 3 3 2 1 1 0
3 3 3 3 3 4 4 4 4 4 4 5 5 5 5 5 5 5 5 6 5 6 6 6 6 6 6 6 5 5 5 4 4 3 3 3 3 3 2 2 1 0 -0
3 3 3 3 3 3 3 4 4 4 4 4 5 5 5 5 5 5 5 5 5 5 5 5 5 5 5 5 5 5 5 4 4 3 3 2 2 2 1 1 0 -0 -1
Wind_Speed
5 5 5 5 6 6 6 6 7 8 8 9 10 12 12 11 10 9 7 9 9 10 11 11 11 10 10 9 8 7 5 4 3 2 1 1 2 4 5 6 7 8 10
6 6 5 6 6 7 7 7 7 7 7 8 9 11 12 11 11 10 9 10 10 10 11 12 11 11 10 9 8 7 6 5 4 3 2 2 3 4 5 6 7 9 10
7 7 6 6 6 7 7 7 7 7 7 7 9 10 10 11 10 11 10 9 11 11 11 11 11 11 11 10 9 8 7 6 5 4 4 4 4 5 5 7 8 9 10
7 7 6 6 6 6 6 6 7 7 7 7 8 8 8 9 11 11 10 10 10 10 11 11 11 11 11 11 10 9 8 7 6 6 5 5 5 5 6 7 8 9 9
8 7 6 6 7 6 6 7 7 7 8 8 7 7 8 8 10 10 11 11 10 10 10 11 11 10 11 11 10 9 9 8 8 7 7 6 6 6 7 7 8 8 9
8 7 6 7 8 6 7 7 8 8 7 7 6 6 7 7 8 10 11 10 10 11 11 10 10 10 10 11 11 10 10 9 9 8 8 7 7 7 7 7 8 9 10
9 7 6 8 8 8 8 9 8 9 8 7 5 5 5 7 8 8 9 9 10 10 11 10 10 9 9 11 11 11 10 10 9 9 8 8 7 7 7 8 8 9 10
9 7 9 8 8 8 9 9 9 8 7 8 6 5 5 5 7 9 8 9 10 9 10 11 10 10 9 9 9 10 11 11 10 9 9 8 8 8 8 8 8 9 10
9 9 10 9 9 9 9 10 10 11 9 9 9 6 5 6 4 6 9 9 10 9 9 9 10 10 10 9 9 10 10 10 10 10 9 9 9 9 8 8 8 9 10
10 10 10 11 10 9 10 11 11 10 10 9 9 8 7 3 4 4 6 9 10 10 10 9 9 10 10 9 9 9 10 10 11 11 10 9 9 9 9 8 8 9 9
10 11 11 11 11 10 10 11 11 11 10 11 9 8 8 6 6 5 5 8 8 8 9 9 8 8 9 10 9 10 11 11 11 11 10 10 10 10 9 9 9 8 9
8 11 11 11 11 10 10 11 11 12 11 12 11 10 8 7 7 6 6 8 8 7 9 8 8 8 9 10 11 10 12 12 11 11 10 10 10 9 9 8 8 8 9
7 9 11 11 11 11 11 11 11 12 13 13 12 10 10 9 7 7 6 6 6 4 6 7 8 8 8 10 10 11 13 13 12 11 10 9 8 8 8 8 8 8 8
8 9 10 11 11 11 11 11 11 12 11 12 13 12 9 9 8 8 7 6 5 5 6 7 7 9 9 9 9 12 12 13 12 11 10 9 8 7 7 7 7 8 8
8 10 10 10 11 11 11 12 11 12 12 12 12 12 10 9 8 8 8 7 7 6 7 7 6 8 8 8 9 10 11 12 13 11 10 9 8 7 7 7 7 7 7
8 8 9 10 11 11 11 11 11 11 12 11 9 11 11 9 9 8 8 8 7 7 6 5 5 5 7 6 9 10 10 11 13 12 10 9 8 7 7 7 6 6 6
7 7 8 8 9 10 11 11 11 11 12 11 11 11 11 10 9 8 8 8 7 7 7 5 3 4 7 7 7 8 8 9 9 11 11 9 8 7 7 6 6 6 6
6 6 7 8 8 9 9 10 10 11 11 12 11 11 11 9 10 9 8 9 8 8 7 7 5 5 7 7 7 7 6 6 7 9 10 9 9 8 7 6 5 5 5
6 5 6 7 7 8 9 8 8 10 11 12 12 11 11 11 11 9 9 9 8 7 6 6 5 4 4 5 6 5 5 4 4 7 9 9 9 8 7 6 4 4 4
4 5 6 7 7 7 8 8 8 8 9 10 11 11 11 11 11 11 9 9 8 8 7 6 5 5 4 5 5 5 4 4 3 4 5 6 7 7 7 6 4 4 3
4 4 5 6 6 6 6 7 7 7 8 8 9 10 10 10 11 10 8 9 9 8 7 6 6 5 5 5 6 5 5 3 3 3 3 3 4 4 5 5 5 3 3
4 4 5 5 6 5 6 7 7 7 8 8 8 9 9 10 11 11 10 10 10 10 9 8 7 8 8 7 6 6 5 4 3 3 3 3 3 3 3 3 4 4 3
4 4 4 4 5 5 5 6 7 7 7 7 8 8 8 9 10 9 9 9 9 9 10 10 9 10 9 9 9 8 7 5 3 3 3 3 2 2 2 4 5 5 3
4 4 4 5 5 5 5 6 5 6 6 7 7 8 8 9 9 9 8 8 7 7 8 8 8 8 8 8 9 8 7 4 3 3 2 2 2 1 1 3 6 5 4
4 5 4 5 5 5 5 5 6 4 5 6 6 7 8 9 10 11 9 8 7 5 4 6 5 5 6 7 8 6 6 5 2 2 2 2 1 0 1 2 4 5 4
5 5 5 5 5 5 5 5 5 3 4 4 4 5 8 9 10 12 10 9 8 6 5 4 5 5 6 7 9 8 7 6 3 3 3 3 2 1 1 1 1 3 3
Wind_Direction
204 204 204 200 201 199 199 205 206 201 204 203 201 199 197 198 196 194 182 179 197 200 197 194 191 187 184 184 183 184 185 185 193 205 259 315 327 327 333 337 336 335 334
211 207 208 207 206 202 204 211 213 208 205 204 205 204 202 201 202 199 196 188 196 203 205 204 200 196 194 192 190 193 194 197 211 225 254 280 298 313 322 324 326 327 327
216 211 209 211 210 207 208 213 215 213 209 205 208 207 206 205 202 203 202 201 199 201 207 209 207 206 203 200 199 199 201 204 215 231 250 264 282 296 305 313 317 322 325
219 212 209 213 211 210 210 211 214 213 210 209 209 208 208 205 206 206 206 206 204 204 204 207 210 212 209 206 204 204 207 209 218 230 243 254 272 285 297 305 312 318 321
216 215 213 212 209 211 215 214 217 216 214 213 212 211 212 208 206 207 209 210 209 208 208 200 204 212 213 213 210 211 213 217 223 231 240 251 266 280 290 299 307 312 316
213 216 216 214 210 211 215 217 217 218 217 213 212 215 216 213 210 210 210 211 212 210 213 209 207 208 209 215 214 216 219 223 228 232 241 249 261 274 284 292 300 307 311
213 213 212 213 214 214 216 218 217 215 214 206 208 216 222 220 216 213 210 211 210 210 213 213 212 213 210 210 213 218 224 227 231 234 241 248 258 269 276 285 295 302 306
215 215 212 212 216 218 219 219 215 214 216 206 207 203 212 215 216 216 211 211 210 205 209 212 212 212 214 213 210 215 226 231 235 237 240 248 258 265 271 279 290 299 305
221 220 220 216 217 218 219 218 218 217 214 212 212 211 209 214 200 204 211 209 209 207 208 210 212 213 214 216 213 211 219 229 236 240 242 247 256 263 267 277 288 295 302
223 223 224 222 219 220 220 220 221 223 215 215 216 224 229 218 205 199 204 208 208 211 212 209 211 212 213 215 217 215 212 223 233 239 244 248 253 260 265 275 284 292 299
226 224 225 224 222 223 223 223 223 224 219 220 219 217 220 217 220 216 213 204 208 213 214 213 212 211 213 215 217 216 211 219 229 236 242 247 250 258 265 273 281 292 301
233 228 225 226 223 222 222 223 225 225 223 223 222 220 217 211 210 213 218 210 211 210 208 211 212 212 213 216 215 208 207 216 225 231 238 245 251 257 265 273 283 292 298
238 236 231 226 224 223 222 222 224 225 224 225 225 225 224 223 219 216 219 218 221 220 213 215 213 210 209 213 212 201 208 214 219 226 232 236 243 251 260 272 282 288 295
239 237 237 232 226 225 223 222 225 225 224 226 227 226 225 225 221 217 215 210 214 226 221 219 208 209 208 210 207 197 211 211 216 220 223 224 229 237 251 264 275 284 293
245 238 234 233 229 226 225 225 227 225 224 225 224 223 224 225 222 221 218 213 212 221 224 215 208 206 205 207 194 204 212 208 213 214 214 216 220 229 241 253 267 280 288
249 244 238 235 233 228 226 227 229 226 226 225 221 221 222 223 221 219 215 216 220 224 229 215 210 202 200 203 198 208 212 202 205 207 209 210 216 226 238 249 261 273 282
249 244 242 236 233 233 229 229 228 224 225 223 219 220 222 222 221 218 215 212 214 216 224 222 207 198 199 201 199 207 209 206 206 202 206 209 214 222 232 242 256 267 276
246 241 242 239 237 237 234 231 231 225 223 222 220 221 223 221 220 217 213 212 211 212 216 214 206 199 204 200 198 202 205 207 208 200 203 207 212 219 224 231 240 257 272
249 243 243 242 243 243 239 235 235 234 227 224 220 222 224 219 219 215 212 211 208 206 208 209 203 194 198 191 190 197 200 204 205 198 200 205 211 216 218 218 227 246 267
257 249 250 248 246 244 241 238 235 237 236 232 224 223 224 220 219 215 211 210 204 197 197 200 194 187 185 183 183 188 196 204 201 192 201 205 206 209 208 206 218 232 250
278 265 260 258 251 245 243 243 237 236 238 240 231 226 224 218 218 215 210 205 199 195 192 195 196 189 185 180 192 190 196 189 195 191 197 198 195 203 199 203 212 222 240
287 283 271 260 255 256 253 253 242 241 240 240 234 231 224 217 210 211 209 205 201 197 195 199 202 198 198 194 187 182 177 177 206 189 191 201 193 205 200 195 205 218 232
296 287 281 268 262 258 259 263 253 248 243 241 235 230 227 213 205 209 206 200 200 203 203 203 202 202 198 195 185 185 188 194 205 169 174 194 193 210 196 196 197 207 218
293 288 280 276 276 270 269 272 279 253 253 247 242 230 218 211 204 199 201 202 205 210 213 214 211 205 197 190 189 186 179 154 107 139 160 191 206 219 198 195 191 204 214
301 295 287 276 276 275 273 277 286 256 248 248 241 229 216 209 194 186 191 192 197 204 191 187 184 175 166 168 163 150 150 151 157 173 175 173 177 183 203 210 197 203 210
296 296 289 279 273 271 276 283 296 265 246 243 244 231 205 200 191 186 193 190 195 195 179 169 164 157 166 162 162 169 170 169 157 175 172 160 152 138 192 226 224 209 215
Height
1480 1481 1483 1484 1486 1488 1489 1491 1493 1494 1496 1497 1498 1500 1502 1504 1505 1507 1508 1509 1511 1512 1513 1514 1514 1514 1515 1515 1515 1515 1514 1514 1514 1513 1512 1511 1510 1509 1508 1506 1505 1503 1501
1475 1477 1478 1480 1482 1483 1485 1487 1489 1490 1492 1494 1495 1497 1498 1500 1502 1504 1505 1506 1508 1509 1510 1511 1512 1512 1512 1513 1513 1513 1513 1512 1512 1511 1511 1510 1509 1508 1506 1504 1503 1501 1499
1471 1472 1474 1475 1477 1479 1481 1483 1485 1486 1488 1489 1491 1493 1494 1496 1497 1500 1502 1503 1505 1506 1507 1508 1509 1509 1510 1510 1510 1510 1510 1510 1510 1509 1509 1508 1507 1505 1504 1502 1501 1498 1496
1466 1468 1469 1471 1473 1474 1476 1478 1480 1482 1483 1485 1487 1489 1490 1492 1493 1495 1497 1499 1501 1502 1504 1505 1506 1507 1507 1508 1508 1508 1508 1508 1507 1507 1506 1505 1504 1503 1502 1500 1498 1496 1494
1461 1463 1464 1466 1468 1469 1472 1474 1476 1477 1479 1481 1483 1485 1486 1487 1489 1491 1493 1495 1496 1498 1500 1501 1502 1503 1504 1505 1505 1505 1505 1505 1505 1504 1504 1503 1502 1501 1499 1498 1496 1494 1491
1456 1458 1460 1461 1463 1465 1467 1469 1471 1473 1475 1477 1479 1480 1482 1483 1484 1486 1488 1490 1492 1493 1496 1497 1498 1499 1500 1501 1501 1502 1502 1502 1502 1501 1501 1500 1499 1498 1496 1495 1493 1491 1489
1451 1453 1454 1456 1458 1460 1462 1464 1466 1468 1470 1472 1475 1476 1478 1479 1480 1481 1483 1485 1487 1488 1491 1492 1494 1495 1496 1497 1497 1498 1498 1498 1499 1498 1498 1497 1496 1495 1493 1492 1490 1488 1486
1445 1447 1449 1451 1453 1455 1457 1460 1461 1463 1465 1467 1470 1472 1474 1475 1474 1476 1477 1480 1482 1483 1485 1488 1489 1490 1491 1493 1493 1494 1494 1494 1495 1495 1494 1494 1493 1492 1490 1489 1487 1485 1483
1440 1442 1444 1446 1448 1450 1452 1454 1456 1458 1460 1462 1465 1467 1468 1468 1470 1471 1472 1474 1476 1478 1480 1483 1484 1486 1487 1488 1489 1489 1490 1490 1491 1491 1491 1490 1489 1489 1487 1486 1484 1482 1480
1436 1437 1439 1441 1442 1444 1447 1449 1451 1453 1455 1457 1459 1461 1463 1463 1465 1465 1467 1468 1470 1472 1475 1477 1479 1480 1482 1483 1484 1485 1486 1486 1487 1487 1487 1486 1486 1485 1484 1482 1481 1478 1476
1431 1432 1434 1435 1437 1439 1441 1443 1445 1447 1449 1451 1453 1454 1456 1458 1459 1460 1461 1463 1465 1467 1469 1471 1473 1475 1477 1478 1479 1480 1481 1482 1482 1483 1483 1482 1482 1481 1480 1478 1477 1475 1472
1424 1426 1428 1429 1431 1433 1435 1437 1439 1441 1443 1445 1447 1449 1450 1452 1453 1455 1456 1457 1459 1461 1463 1465 1467 1469 1471 1473 1474 1475 1477 1478 1478 1478 1478 1478 1477 1477 1476 1474 1473 1471 1468
1418 1420 1421 1423 1425 1427 1429 1431 1433 1435 1437 1439 1441 1443 1445 1447 1449 1450 1452 1453 1454 1456 1457 1459 1461 1463 1465 1467 1469 1470 1472 1473 1474 1474 1474 1474 1473 1472 1471 1470 1469 1467 1464
1412 1414 1415 1417 1419 1421 1423 1425 1427 1428 1431 1433 1434 1436 1439 1441 1443 1444 1446 1448 1449 1450 1451 1453 1455 1457 1459 1461 1463 1465 1467 1468 1469 1469 1469 1469 1469 1468 1467 1466 1464 1462 1460
1407 1408 1409 1411 1412 1414 1416 1419 1420 1422 1424 1426 1428 1430 1432 1434 1437 1439 1441 1442 1444 1444 1447 1448 1449 1451 1454 1456 1458 1460 1461 1463 1464 1464 1465 1465 1465 1464 1463 1461 1460 1458 1456
1401 1402 1403 1404 1406 1408 1410 1412 1414 1416 1418 1419 1421 1424 1426 1428 1431 1432 1434 1437 1438 1440 1441 1442 1444 1446 1448 1451 1453 1455 1456 1458 1459 1459 1460 1460 1460 1459 1458 1457 1455 1454 1452
1396 1397 1398 1398 1400 1401 1404 1405 1407 1409 1411 1412 1415 1417 1419 1422 1424 1426 1428 1430 1432 1435 1436 1437 1439 1441 1443 1445 1447 1449 1451 1453 1453 1454 1455 1455 1455 1454 1453 1452 1451 1449 1447
1391 1392 1392 1393 1394 1396 1397 1399 1401 1402 1404 1406 1409 1411 1413 1416 1418 1420 1422 1424 1426 1429 1431 1431 1433 1435 1437 1439 1442 1444 1446 1447 1448 1449 1450 1450 1450 1449 1448 1447 1446 1445 1443
1386 1387 1388 1388 1389 1390 1391 1393 1395 1397 1398 1400 1403 1405 1407 1410 1411 1414 1416 1418 1420 1423 1425 1427 1427 1430 1432 1434 1437 1439 1440 1442 1443 1444 1445 1445 1445 1444 1443 1443 1442 1441 1439
1382 1382 1383 1384 1384 1385 1386 1387 1389 1391 1393 1394 1396 1399 1401 1403 1405 1408 1410 1412 1414 1417 1420 1421 1422 1424 1426 1429 1432 1433 1435 1437 1438 1439 1440 1440 1440 1439 1439 1438 1438 1437 1435
1379 1379 1380 1380 1380 1381 1381 1382 1383 1385 1386 1388 1390 1392 1395 1397 1399 1402 1405 1406 1409 1411 1413 1415 1416 1418 1420 1423 1426 1428 1430 1431 1432 1434 1434 1435 1435 1435 1435 1434 1434 1433 1432
1376 1376 1376 1376 1376 1377 1377 1378 1379 1379 1381 1382 1383 1386 1388 1391 1393 1396 1399 1401 1403 1405 1407 1409 1411 1412 1414 1417 1420 1422 1424 1425 1427 1429 1429 1430 1430 1431 1431 1431 1430 1429 1428
1373 1373 1373 1372 1372 1372 1373 1373 1374 1375 1375 1376 1378 1380 1382 1384 1387 1389 1392 1395 1398 1400 1403 1405 1405 1407 1409 1412 1414 1416 1419 1421 1422 1423 1424 1425 1426 1426 1427 1427 1426 1425 1425
1370 1369 1369 1369 1368 1368 1368 1369 1369 1370 1370 1370 1371 1373 1376 1378 1381 1384 1387 1390 1392 1395 1397 1399 1401 1403 1405 1407 1409 1412 1414 1416 1417 1419 1420 1421 1421 1422 1423 1423 1423 1422 1421
1367 1366 1365 1365 1364 1364 1364 1364 1364 1364 1364 1365 1366 1367 1369 1372 1375 1379 1382 1384 1386 1389 1392 1394 1396 1398 1401 1403 1405 1407 1409 1411 1412 1414 1416 1417 1417 1418 1419 1419 1419 1419 1418
1364 1363 1362 1361 1361 1360 1360 1360 1360 1359 1359 1359 1360 1362 1364 1367 1370 1373 1376 1379 1381 1383 1386 1388 1391 1394 1396 1398 1400 1402 1404 1406 1407 1409 1411 1413 1413 1414 1415 1415 1416 1416 1415